Location: *
(34.8620°S, 39.3380°E)
Time: 02:30:18
(UTC+00:00)

Cosmos 1300 - Pass Details

Date: 30 November 2021
Orbit: 509 x 511 km, 82.5° (Epoch: 22 January)

Event Time Altitude Azimuth Distance (km) Brightness Sun altitude
Exits shadow 22:48:10 25° 192° (SSW) 1,095 4.8 -28.9°
Drops below altitude 10° 22:49:54 10° 182° (S) 1,762 6.1 -28.7°
Sets 22:52:05 0° 178° (S) 2,657 7.3 -28.5°
